Tracking 28792 objects as of 24-Apr-2024
HD Live streaming from Space Station
objects crossing your sky now

STARLINK-30608

Track STARLINK-30608 now!
10-day predictions
STARLINK-30608 is classified as:


NORAD ID: 58091
Int'l Code: 2023-160S
Perigee: 565.3 km
Apogee: 567.2 km
Inclination: 43.0 °
Period: 95.8 minutes
Semi major axis: 6937 km
RCS: Unknown
Launch date: October 18, 2023
Source: United States (US)
Launch site: AIR FORCE EASTERN TEST RANGE (AFETR)
Your satellite tracking list
Your tracking list is empty




NASA's NSSDC Master Catalog

Two Line Element Set (TLE):
1 58091U 23160S   24115.25207185  .00000269  00000-0  34990-4 0  9994
2 58091  43.0013 199.0410 0001362 253.9355 106.1337 15.02539112 29937
Source of the keplerian elements: AFSPC